DAL7931 TJSJ-KATL

Flight info

Callsign DAL7931
Flight time 3h 32m
Altitude 36000
Route ACONY3 PALDE DCT DONQU Y185 MANLE Q89 SHRKS DCT LAIRI DCT LARZZ JJEDI4
Aircraft A320/M-SDE3FGHIRWY/LB1

Departure

Time 2026-05-06 13:42
Airport Luis Munoz Marin International Airport (TJSJ)

Arrival

Time 2026-05-06 17:15
Airport Hartsfield Jackson Atlanta International Airport (KATL)
Time Latitude Longitude Altitude Speed Heading
2026-05-06 13:19 18.44068 -66.00433 21 ft 0 kts 158°
2026-05-06 13:34 18.44083 -66.00439 23 ft 2 kts 147°
2026-05-06 13:34 18.44096 -66.00450 20 ft 2 kts 173°
2026-05-06 13:35 18.44113 -66.00453 20 ft 2 kts 180°
2026-05-06 13:35 18.44128 -66.00447 22 ft 2 kts 249°
2026-05-06 13:35 18.44128 -66.00446 22 ft 0 kts 249°
2026-05-06 13:36 18.44128 -66.00449 22 ft 2 kts 251°
2026-05-06 13:36 18.44119 -66.00493 21 ft 10 kts 258°
2026-05-06 13:37 18.44099 -66.00584 20 ft 13 kts 256°
2026-05-06 13:37 18.44063 -66.00664 22 ft 12 kts 242°
2026-05-06 13:37 18.44025 -66.00740 20 ft 11 kts 244°
2026-05-06 13:37 18.43993 -66.00811 19 ft 10 kts 245°
2026-05-06 13:38 18.43965 -66.00873 19 ft 9 kts 245°
2026-05-06 13:38 18.43944 -66.00928 20 ft 8 kts 250°
2026-05-06 13:38 18.43920 -66.01003 19 ft 12 kts 250°
2026-05-06 13:38 18.43891 -66.01085 21 ft 11 kts 249°
2026-05-06 13:39 18.43863 -66.01159 18 ft 10 kts 248°
2026-05-06 13:39 18.43839 -66.01225 18 ft 9 kts 251°
2026-05-06 13:39 18.43819 -66.01283 20 ft 8 kts 250°
2026-05-06 13:39 18.43802 -66.01336 20 ft 8 kts 256°
2026-05-06 13:40 18.43795 -66.01387 18 ft 7 kts 259°
2026-05-06 13:40 18.43779 -66.01434 18 ft 8 kts 248°
2026-05-06 13:40 18.43757 -66.01494 19 ft 10 kts 262°
2026-05-06 13:40 18.43801 -66.01562 18 ft 13 kts 323°
2026-05-06 13:41 18.43845 -66.01557 18 ft 0 kts 62°
2026-05-06 13:41 18.43891 -66.01448 18 ft 50 kts 67°
2026-05-06 13:41 18.44116 -66.00889 20 ft 113 kts 67°
2026-05-06 13:42 18.44492 -65.99960 21 ft 161 kts 66°
2026-05-06 13:42 18.44812 -65.99194 122 ft 179 kts 67°
2026-05-06 13:42 18.45294 -65.97989 771 ft 178 kts 68°
2026-05-06 13:42 18.45777 -65.96794 1506 ft 176 kts 69°
2026-05-06 13:43 18.46316 -65.95592 1952 ft 193 kts 56°
2026-05-06 13:43 18.47417 -65.94630 2211 ft 221 kts 30°
2026-05-06 13:43 18.48978 -65.94208 2523 ft 249 kts 360°
2026-05-06 13:43 18.50712 -65.94725 2940 ft 272 kts 330°
2026-05-06 13:44 18.52149 -65.96047 3678 ft 279 kts 304°
2026-05-06 13:44 18.52934 -65.97910 4458 ft 282 kts 278°
2026-05-06 13:44 18.52917 -65.99969 5257 ft 284 kts 262°
2026-05-06 13:44 18.52968 -66.02062 5995 ft 290 kts 280°
2026-05-06 13:45 18.53427 -66.04142 6782 ft 292 kts 284°
2026-05-06 13:45 18.55126 -66.08006 8242 ft 297 kts 315°
2026-05-06 13:45 18.56654 -66.09470 9026 ft 298 kts 318°
2026-05-06 13:46 18.58211 -66.10920 9791 ft 299 kts 318°
2026-05-06 13:46 18.59793 -66.12386 10259 ft 312 kts 318°
2026-05-06 13:46 18.61482 -66.13949 10390 ft 334 kts 318°
2026-05-06 13:46 18.63284 -66.15619 10510 ft 355 kts 318°
2026-05-06 13:47 18.65175 -66.17376 10822 ft 367 kts 317°
2026-05-06 13:47 18.67102 -66.19170 11367 ft 371 kts 317°
2026-05-06 13:47 18.69045 -66.20983 11958 ft 374 kts 318°
2026-05-06 13:47 18.70998 -66.22804 12553 ft 376 kts 317°
2026-05-06 13:48 18.72965 -66.24638 13138 ft 379 kts 317°
2026-05-06 13:48 18.74947 -66.26487 13711 ft 382 kts 317°
2026-05-06 13:48 18.76941 -66.28350 14243 ft 384 kts 317°
2026-05-06 13:48 18.78944 -66.30222 14765 ft 386 kts 318°
2026-05-06 13:49 18.80958 -66.32105 15293 ft 387 kts 318°
2026-05-06 13:49 18.82985 -66.33998 15804 ft 390 kts 318°
2026-05-06 13:49 18.85023 -66.35897 16346 ft 391 kts 317°
2026-05-06 13:49 18.87068 -66.37805 16893 ft 393 kts 317°
2026-05-06 13:50 18.89095 -66.39695 17461 ft 394 kts 317°
2026-05-06 13:50 18.91184 -66.41644 17993 ft 397 kts 317°
2026-05-06 13:50 18.93257 -66.43585 18508 ft 400 kts 317°
2026-05-06 13:50 18.95342 -66.45538 18960 ft 402 kts 317°
2026-05-06 13:51 18.97442 -66.47503 19410 ft 404 kts 317°
2026-05-06 13:51 18.99519 -66.49447 19864 ft 406 kts 317°
2026-05-06 13:51 19.01635 -66.51431 20277 ft 408 kts 318°
2026-05-06 13:51 19.03767 -66.53430 20681 ft 411 kts 318°
2026-05-06 13:52 19.05913 -66.55442 21067 ft 414 kts 318°
2026-05-06 13:52 19.08071 -66.57466 21476 ft 416 kts 318°
2026-05-06 13:52 19.10239 -66.59503 21886 ft 417 kts 318°
2026-05-06 13:52 19.12411 -66.61542 22290 ft 419 kts 318°
2026-05-06 13:53 19.14594 -66.63592 22640 ft 421 kts 319°
2026-05-06 13:53 19.16800 -66.65661 22940 ft 425 kts 319°
2026-05-06 13:53 19.19016 -66.67737 23295 ft 427 kts 319°
2026-05-06 13:53 19.21245 -66.69828 23620 ft 429 kts 319°
2026-05-06 13:54 19.23475 -66.71926 23922 ft 430 kts 319°
2026-05-06 13:54 19.25717 -66.74039 24192 ft 432 kts 319°
2026-05-06 13:54 19.27965 -66.76156 24437 ft 434 kts 318°
2026-05-06 13:54 19.30226 -66.78285 24712 ft 435 kts 318°
2026-05-06 13:55 19.32493 -66.80419 24992 ft 436 kts 318°
2026-05-06 13:55 19.34763 -66.82556 25270 ft 437 kts 318°
2026-05-06 13:55 19.37041 -66.84705 25523 ft 439 kts 318°
2026-05-06 13:55 19.39325 -66.86862 25768 ft 441 kts 318°
2026-05-06 13:56 19.41619 -66.89026 26020 ft 442 kts 318°
2026-05-06 13:56 19.43923 -66.91199 26281 ft 444 kts 318°
2026-05-06 13:56 19.46233 -66.93376 26536 ft 445 kts 318°
2026-05-06 13:56 19.48549 -66.95556 26778 ft 446 kts 318°
2026-05-06 13:57 19.50875 -66.97746 27017 ft 448 kts 318°
2026-05-06 13:57 19.53200 -66.99942 27250 ft 449 kts 317°
2026-05-06 13:57 19.55532 -67.02151 27479 ft 450 kts 317°
2026-05-06 13:57 19.57866 -67.04366 27696 ft 451 kts 317°
2026-05-06 13:58 19.60204 -67.06586 27924 ft 452 kts 317°
2026-05-06 13:58 19.62552 -67.08812 28159 ft 452 kts 317°
2026-05-06 13:58 19.64900 -67.11032 28450 ft 451 kts 317°
2026-05-06 13:58 19.67239 -67.13244 28769 ft 450 kts 317°
2026-05-06 13:59 19.69569 -67.15450 29089 ft 448 kts 317°
2026-05-06 13:59 19.71890 -67.17653 29405 ft 447 kts 317°
2026-05-06 13:59 19.74207 -67.19853 29725 ft 446 kts 317°
2026-05-06 13:59 19.76515 -67.22043 30045 ft 445 kts 317°
2026-05-06 14:00 19.78818 -67.24228 30336 ft 444 kts 317°
2026-05-06 14:00 19.81116 -67.26410 30599 ft 443 kts 317°
2026-05-06 14:00 19.83408 -67.28587 30856 ft 442 kts 317°
2026-05-06 14:00 19.85698 -67.30765 31118 ft 441 kts 316°
2026-05-06 14:01 19.87979 -67.32935 31375 ft 440 kts 316°
2026-05-06 14:01 19.90261 -67.35105 31620 ft 440 kts 316°
2026-05-06 14:01 19.92540 -67.37269 31879 ft 439 kts 316°
2026-05-06 14:01 19.94815 -67.39429 32142 ft 438 kts 316°
2026-05-06 14:02 19.97083 -67.41591 32400 ft 438 kts 316°
2026-05-06 14:02 19.99347 -67.43753 32654 ft 437 kts 316°
2026-05-06 14:02 20.01575 -67.45875 32913 ft 436 kts 316°
2026-05-06 14:02 20.03834 -67.48030 33177 ft 435 kts 316°
2026-05-06 14:03 20.06085 -67.50178 33437 ft 434 kts 316°
2026-05-06 14:03 20.08364 -67.52351 33692 ft 434 kts 316°
2026-05-06 14:03 20.10579 -67.54463 33945 ft 433 kts 316°
2026-05-06 14:03 20.12846 -67.56624 34216 ft 432 kts 316°
2026-05-06 14:04 20.15077 -67.58754 34442 ft 431 kts 316°
2026-05-06 14:04 20.17275 -67.60858 34655 ft 430 kts 316°
2026-05-06 14:04 20.19522 -67.63014 34866 ft 429 kts 316°
2026-05-06 14:04 20.21714 -67.65112 35056 ft 429 kts 316°
2026-05-06 14:05 20.23931 -67.67232 35238 ft 429 kts 316°
2026-05-06 14:05 20.26147 -67.69350 35415 ft 428 kts 316°
2026-05-06 14:05 20.28363 -67.71470 35589 ft 428 kts 316°
2026-05-06 14:05 20.30578 -67.73593 35771 ft 428 kts 316°
2026-05-06 14:06 20.32783 -67.75711 35964 ft 427 kts 316°
2026-05-06 14:06 20.34986 -67.77826 36108 ft 426 kts 316°
2026-05-06 14:06 20.39413 -67.82079 36141 ft 430 kts 316°
2026-05-06 14:07 20.43860 -67.86346 36141 ft 430 kts 316°
2026-05-06 14:07 20.48312 -67.90613 36139 ft 430 kts 316°
2026-05-06 14:08 20.52757 -67.94891 36139 ft 430 kts 316°
2026-05-06 14:08 20.57204 -67.99168 36139 ft 430 kts 316°
2026-05-06 14:09 20.61649 -68.03452 36142 ft 430 kts 316°
2026-05-06 14:09 20.66092 -68.07736 36141 ft 430 kts 316°
2026-05-06 14:10 20.70526 -68.12035 36157 ft 430 kts 313°
2026-05-06 14:10 20.74364 -68.16907 36154 ft 428 kts 308°
2026-05-06 14:11 20.78104 -68.21865 36142 ft 429 kts 308°
2026-05-06 14:11 20.81853 -68.26820 36143 ft 429 kts 308°
2026-05-06 14:12 20.85602 -68.31789 36145 ft 429 kts 308°
2026-05-06 14:12 20.89349 -68.36761 36147 ft 429 kts 308°
2026-05-06 14:13 20.93091 -68.41735 36147 ft 429 kts 308°
2026-05-06 14:13 20.96834 -68.46714 36145 ft 430 kts 308°
2026-05-06 14:14 21.00579 -68.51697 36146 ft 430 kts 308°
2026-05-06 14:14 21.04322 -68.56686 36150 ft 430 kts 308°
2026-05-06 14:15 21.08044 -68.61635 36165 ft 429 kts 308°
2026-05-06 14:15 21.11786 -68.66622 36160 ft 429 kts 308°
2026-05-06 14:16 21.15520 -68.71608 36156 ft 429 kts 308°
2026-05-06 14:16 21.19257 -68.76594 36150 ft 429 kts 308°
2026-05-06 14:17 21.22986 -68.81580 36148 ft 429 kts 308°
2026-05-06 14:17 21.26704 -68.86579 36144 ft 428 kts 308°
2026-05-06 14:18 21.30421 -68.91566 36143 ft 428 kts 308°
2026-05-06 14:18 21.34147 -68.96552 36143 ft 428 kts 308°
2026-05-06 14:19 21.37862 -69.01540 36145 ft 428 kts 308°
2026-05-06 14:19 21.41573 -69.06534 36144 ft 428 kts 308°
2026-05-06 14:20 21.45284 -69.11525 36156 ft 427 kts 308°
2026-05-06 14:20 21.48995 -69.16510 36146 ft 427 kts 308°
2026-05-06 14:21 21.52696 -69.21493 36142 ft 426 kts 308°
2026-05-06 14:21 21.56387 -69.26480 36141 ft 426 kts 308°
2026-05-06 14:22 21.60076 -69.31463 36138 ft 426 kts 308°
2026-05-06 14:22 21.63764 -69.36450 36140 ft 426 kts 308°
2026-05-06 14:23 21.67453 -69.41437 36145 ft 426 kts 308°
2026-05-06 14:23 21.71143 -69.46426 36143 ft 426 kts 308°
2026-05-06 14:24 21.74825 -69.51417 36146 ft 426 kts 308°
2026-05-06 14:24 21.78504 -69.56404 36147 ft 425 kts 309°
2026-05-06 14:25 21.82176 -69.61388 36159 ft 425 kts 309°
2026-05-06 14:25 21.85838 -69.66368 36152 ft 424 kts 309°
2026-05-06 14:26 21.89501 -69.71347 36144 ft 424 kts 309°
2026-05-06 14:26 21.92543 -69.75478 36142 ft 424 kts 309°
2026-05-06 14:27 21.96196 -69.80465 36145 ft 424 kts 309°
2026-05-06 14:27 21.99851 -69.85446 36143 ft 424 kts 309°
2026-05-06 14:28 22.03500 -69.90430 36146 ft 423 kts 309°
2026-05-06 14:28 22.07142 -69.95410 36150 ft 423 kts 309°
2026-05-06 14:29 22.10780 -70.00389 36148 ft 422 kts 309°
2026-05-06 14:29 22.14418 -70.05355 36145 ft 422 kts 309°
2026-05-06 14:30 22.18054 -70.10325 36154 ft 422 kts 310°
2026-05-06 14:30 22.21681 -70.15302 36149 ft 422 kts 309°
2026-05-06 14:31 22.25278 -70.20248 36138 ft 422 kts 310°
2026-05-06 14:31 22.28919 -70.25253 36143 ft 421 kts 310°
2026-05-06 14:32 22.32537 -70.30222 36141 ft 420 kts 310°
2026-05-06 14:32 22.36148 -70.35188 36141 ft 420 kts 310°
2026-05-06 14:33 22.39754 -70.40153 36143 ft 420 kts 310°
2026-05-06 14:33 22.43340 -70.45092 36144 ft 420 kts 310°
2026-05-06 14:34 22.46945 -70.50065 36144 ft 420 kts 310°
2026-05-06 14:34 22.50547 -70.55047 36135 ft 420 kts 310°
2026-05-06 14:35 22.54139 -70.60024 36157 ft 420 kts 311°
2026-05-06 14:35 22.57730 -70.65004 36156 ft 419 kts 311°
2026-05-06 14:36 22.61321 -70.69979 36156 ft 419 kts 311°
2026-05-06 14:36 22.64910 -70.74950 36152 ft 419 kts 311°
2026-05-06 14:37 22.68498 -70.79924 36151 ft 419 kts 311°
2026-05-06 14:37 22.72052 -70.84927 36154 ft 419 kts 310°
2026-05-06 14:38 22.75557 -70.89980 36145 ft 419 kts 310°
2026-05-06 14:38 22.79048 -70.95023 36152 ft 418 kts 310°
2026-05-06 14:39 22.82547 -71.00039 36149 ft 417 kts 311°
2026-05-06 14:39 22.86048 -71.05050 36146 ft 417 kts 311°
2026-05-06 14:40 22.89539 -71.10058 36146 ft 416 kts 311°
2026-05-06 14:40 22.93025 -71.15077 36159 ft 416 kts 311°
2026-05-06 14:41 22.96505 -71.20094 36151 ft 416 kts 311°
2026-05-06 14:41 22.99982 -71.25106 36148 ft 416 kts 311°
2026-05-06 14:42 23.03460 -71.30117 36147 ft 415 kts 311°
2026-05-06 14:42 23.06933 -71.35133 36144 ft 415 kts 310°
2026-05-06 14:43 23.10400 -71.40150 36141 ft 415 kts 311°
2026-05-06 14:43 23.13874 -71.45161 36143 ft 415 kts 311°
2026-05-06 14:44 23.17341 -71.50181 36139 ft 415 kts 310°
2026-05-06 14:45 23.22532 -71.57723 36125 ft 415 kts 311°
2026-05-06 14:45 23.25987 -71.62742 36136 ft 414 kts 311°
2026-05-06 14:46 23.29443 -71.67745 36165 ft 413 kts 311°
2026-05-06 14:46 23.32892 -71.72748 36158 ft 413 kts 311°
2026-05-06 14:47 23.36326 -71.77752 36148 ft 412 kts 311°
2026-05-06 14:47 23.39759 -71.82751 36146 ft 412 kts 311°
2026-05-06 14:48 23.43200 -71.87743 36147 ft 412 kts 311°
2026-05-06 14:48 23.46637 -71.92730 36142 ft 411 kts 311°
2026-05-06 14:49 23.50063 -71.97711 36148 ft 410 kts 311°
2026-05-06 14:49 23.53487 -72.02684 36150 ft 410 kts 311°
2026-05-06 14:50 23.56897 -72.07650 36148 ft 409 kts 311°
2026-05-06 14:50 23.60300 -72.12618 36146 ft 409 kts 311°
2026-05-06 14:51 23.63676 -72.17554 36144 ft 409 kts 311°
2026-05-06 14:51 23.67078 -72.22520 36143 ft 408 kts 311°
2026-05-06 14:52 23.70478 -72.27481 36135 ft 408 kts 311°
2026-05-06 14:52 23.73861 -72.32442 36143 ft 407 kts 311°
2026-05-06 14:53 23.77238 -72.37402 36145 ft 407 kts 311°
2026-05-06 14:53 23.80615 -72.42356 36143 ft 406 kts 311°
2026-05-06 14:54 23.83986 -72.47308 36146 ft 406 kts 311°
2026-05-06 14:54 23.87355 -72.52263 36144 ft 406 kts 311°
2026-05-06 14:55 23.90725 -72.57211 36139 ft 406 kts 311°
2026-05-06 14:55 23.94097 -72.62160 36128 ft 406 kts 311°
2026-05-06 14:56 23.97455 -72.67112 36133 ft 405 kts 311°
2026-05-06 14:56 24.00810 -72.72062 36143 ft 405 kts 311°
2026-05-06 14:57 24.04162 -72.77008 36147 ft 405 kts 311°
2026-05-06 14:57 24.07503 -72.81965 36145 ft 404 kts 311°
2026-05-06 14:58 24.10838 -72.86913 36144 ft 404 kts 311°
2026-05-06 14:58 24.14180 -72.91856 36142 ft 404 kts 311°
2026-05-06 14:59 24.17519 -72.96803 36131 ft 403 kts 311°
2026-05-06 14:59 24.20849 -73.01743 36138 ft 403 kts 311°
2026-05-06 15:00 24.24169 -73.06687 36140 ft 403 kts 311°
2026-05-06 15:00 24.27493 -73.11626 36142 ft 402 kts 311°
2026-05-06 15:01 24.30806 -73.16562 36143 ft 402 kts 311°
2026-05-06 15:01 24.34120 -73.21503 36141 ft 402 kts 311°
2026-05-06 15:02 24.37433 -73.26443 36138 ft 402 kts 311°
2026-05-06 15:02 24.40747 -73.31381 36131 ft 402 kts 311°
2026-05-06 15:03 24.44054 -73.36322 36135 ft 402 kts 311°
2026-05-06 15:03 24.47338 -73.41233 36139 ft 402 kts 311°
2026-05-06 15:04 24.50655 -73.46215 36138 ft 402 kts 311°
2026-05-06 15:04 24.53927 -73.51133 36139 ft 401 kts 311°
2026-05-06 15:05 24.57221 -73.56087 36140 ft 402 kts 311°
2026-05-06 15:05 24.60458 -73.61149 36140 ft 402 kts 310°
2026-05-06 15:06 24.63610 -73.66188 36128 ft 403 kts 309°
2026-05-06 15:06 24.66816 -73.71286 36130 ft 403 kts 310°
2026-05-06 15:07 24.69993 -73.76311 36135 ft 403 kts 310°
2026-05-06 15:07 24.73219 -73.81401 36135 ft 403 kts 310°
2026-05-06 15:08 24.76395 -73.86433 36152 ft 403 kts 310°
2026-05-06 15:08 24.79585 -73.91506 36151 ft 403 kts 309°
2026-05-06 15:09 24.82766 -73.96570 36150 ft 402 kts 309°
2026-05-06 15:09 24.85948 -74.01640 36128 ft 402 kts 309°
2026-05-06 15:10 24.89133 -74.06710 36126 ft 403 kts 309°
2026-05-06 15:10 24.92325 -74.11789 36129 ft 403 kts 309°
2026-05-06 15:11 24.94979 -74.16009 36132 ft 403 kts 309°
2026-05-06 15:11 24.98165 -74.21104 36135 ft 404 kts 309°
2026-05-06 15:12 25.01349 -74.26201 36137 ft 404 kts 309°
2026-05-06 15:12 25.04535 -74.31305 36144 ft 404 kts 309°
2026-05-06 15:13 25.07715 -74.36420 36124 ft 404 kts 309°
2026-05-06 15:13 25.10900 -74.41535 36125 ft 405 kts 309°
2026-05-06 15:14 25.14098 -74.46648 36151 ft 405 kts 309°
2026-05-06 15:14 25.17287 -74.51767 36145 ft 405 kts 309°
2026-05-06 15:15 25.20470 -74.56892 36149 ft 404 kts 308°
2026-05-06 15:15 25.23643 -74.62018 36148 ft 404 kts 308°
2026-05-06 15:16 25.26819 -74.67142 36150 ft 404 kts 308°
2026-05-06 15:16 25.29993 -74.72272 36149 ft 404 kts 308°
2026-05-06 15:17 25.33167 -74.77404 36143 ft 404 kts 308°
2026-05-06 15:17 25.36336 -74.82534 36143 ft 404 kts 308°
2026-05-06 15:18 25.39507 -74.87673 36147 ft 404 kts 308°
2026-05-06 15:18 25.42675 -74.92812 36146 ft 404 kts 308°
2026-05-06 15:19 25.45843 -74.97953 36146 ft 404 kts 308°
2026-05-06 15:19 25.48992 -75.03054 36152 ft 404 kts 308°
2026-05-06 15:20 25.52159 -75.08200 36136 ft 404 kts 308°
2026-05-06 15:20 25.55318 -75.13341 36138 ft 404 kts 308°
2026-05-06 15:21 25.58471 -75.18497 36144 ft 404 kts 308°
2026-05-06 15:21 25.61626 -75.23657 36138 ft 404 kts 308°
2026-05-06 15:22 25.64778 -75.28822 36142 ft 404 kts 308°
2026-05-06 15:22 25.67932 -75.33986 36136 ft 404 kts 308°
2026-05-06 15:23 25.71085 -75.39147 36132 ft 404 kts 308°
2026-05-06 15:23 25.74240 -75.44312 36130 ft 405 kts 307°
2026-05-06 15:24 25.77394 -75.49481 36126 ft 405 kts 307°
2026-05-06 15:24 25.80546 -75.54664 36138 ft 405 kts 307°
2026-05-06 15:25 25.83695 -75.59848 36137 ft 405 kts 307°
2026-05-06 15:25 25.86843 -75.65036 36142 ft 405 kts 307°
2026-05-06 15:26 25.89986 -75.70220 36134 ft 405 kts 307°
2026-05-06 15:26 25.93130 -75.75404 36139 ft 405 kts 307°
2026-05-06 15:27 25.96269 -75.80590 36127 ft 405 kts 307°
2026-05-06 15:27 25.99408 -75.85783 36132 ft 405 kts 307°
2026-05-06 15:28 26.02546 -75.90982 36124 ft 405 kts 307°
2026-05-06 15:28 26.05685 -75.96180 36125 ft 405 kts 307°
2026-05-06 15:29 26.08821 -76.01385 36127 ft 405 kts 307°
2026-05-06 15:29 26.11954 -76.06594 36127 ft 405 kts 307°
2026-05-06 15:30 26.15083 -76.11808 36137 ft 405 kts 307°
2026-05-06 15:30 26.18213 -76.17018 36121 ft 405 kts 307°
2026-05-06 15:31 26.21342 -76.22237 36136 ft 405 kts 307°
2026-05-06 15:31 26.24460 -76.27452 36134 ft 405 kts 306°
2026-05-06 15:32 26.29145 -76.35272 36145 ft 404 kts 307°
2026-05-06 15:32 26.32261 -76.40489 36133 ft 404 kts 306°
2026-05-06 15:33 26.35347 -76.45666 36133 ft 404 kts 306°
2026-05-06 15:33 26.38460 -76.50882 36140 ft 404 kts 306°
2026-05-06 15:34 26.41562 -76.56103 36129 ft 404 kts 306°
2026-05-06 15:34 26.44662 -76.61326 36131 ft 404 kts 306°
2026-05-06 15:35 26.47767 -76.66547 36140 ft 403 kts 306°
2026-05-06 15:35 26.50873 -76.71769 36139 ft 403 kts 306°
2026-05-06 15:36 26.53967 -76.76994 36134 ft 403 kts 306°
2026-05-06 15:36 26.57055 -76.82226 36136 ft 403 kts 306°
2026-05-06 15:37 26.60149 -76.87451 36125 ft 403 kts 306°
2026-05-06 15:37 26.63232 -76.92677 36134 ft 403 kts 306°
2026-05-06 15:38 26.66311 -76.97906 36130 ft 402 kts 306°
2026-05-06 15:38 26.69386 -77.03129 36145 ft 402 kts 306°
2026-05-06 15:39 26.72460 -77.08351 36129 ft 402 kts 306°
2026-05-06 15:39 26.75540 -77.13574 36129 ft 402 kts 306°
2026-05-06 15:40 26.78608 -77.18804 36131 ft 402 kts 306°
2026-05-06 15:40 26.81669 -77.24038 36121 ft 402 kts 306°
2026-05-06 15:41 26.84740 -77.29265 36131 ft 402 kts 306°
2026-05-06 15:41 26.87810 -77.34494 36134 ft 402 kts 306°
2026-05-06 15:42 26.90865 -77.39735 36155 ft 402 kts 306°
2026-05-06 15:42 26.93918 -77.44971 36152 ft 401 kts 306°
2026-05-06 15:43 26.96968 -77.50212 36146 ft 401 kts 306°
2026-05-06 15:43 27.00012 -77.55445 36144 ft 401 kts 306°
2026-05-06 15:44 27.03077 -77.60667 36138 ft 400 kts 306°
2026-05-06 15:44 27.06178 -77.65851 36134 ft 400 kts 306°
2026-05-06 15:45 27.09263 -77.70997 36140 ft 400 kts 306°
2026-05-06 15:45 27.12356 -77.76187 36142 ft 400 kts 306°
2026-05-06 15:46 27.15438 -77.81387 36138 ft 400 kts 306°
2026-05-06 15:46 27.18519 -77.86590 36138 ft 400 kts 306°
2026-05-06 15:47 27.21598 -77.91796 36141 ft 400 kts 306°
2026-05-06 15:47 27.24679 -77.97001 36135 ft 400 kts 306°
2026-05-06 15:48 27.27759 -78.02205 36141 ft 400 kts 306°
2026-05-06 15:48 27.30835 -78.07420 36134 ft 400 kts 306°
2026-05-06 15:49 27.33908 -78.12639 36141 ft 400 kts 306°
2026-05-06 15:49 27.36986 -78.17858 36144 ft 400 kts 306°
2026-05-06 15:50 27.40064 -78.23084 36139 ft 400 kts 306°
2026-05-06 15:50 27.43132 -78.28310 36151 ft 400 kts 306°
2026-05-06 15:51 27.46204 -78.33545 36144 ft 400 kts 306°
2026-05-06 15:51 27.49271 -78.38778 36145 ft 401 kts 306°
2026-05-06 15:52 27.52345 -78.44017 36150 ft 401 kts 306°
2026-05-06 15:52 27.55410 -78.49259 36145 ft 401 kts 305°
2026-05-06 15:53 27.58471 -78.54507 36145 ft 401 kts 306°
2026-05-06 15:53 27.61539 -78.59752 36161 ft 400 kts 305°
2026-05-06 15:54 27.64596 -78.64992 36162 ft 400 kts 305°
2026-05-06 15:54 27.67727 -78.70166 36147 ft 399 kts 306°
2026-05-06 15:55 27.70921 -78.75283 36151 ft 399 kts 307°
2026-05-06 15:55 27.73571 -78.79539 36157 ft 399 kts 306°
2026-05-06 15:56 27.76736 -78.84681 36152 ft 399 kts 306°
2026-05-06 15:56 27.79886 -78.89836 36147 ft 399 kts 306°
2026-05-06 15:57 27.83035 -78.94995 36148 ft 399 kts 306°
2026-05-06 15:57 27.86187 -79.00148 36148 ft 399 kts 306°
2026-05-06 15:58 27.89342 -79.05304 36161 ft 399 kts 306°
2026-05-06 15:58 27.92495 -79.10463 36143 ft 399 kts 306°
2026-05-06 15:59 27.95640 -79.15631 36163 ft 399 kts 306°
2026-05-06 15:59 27.98784 -79.20788 36159 ft 398 kts 306°
2026-05-06 16:00 28.01919 -79.25944 36156 ft 398 kts 306°
2026-05-06 16:00 28.05047 -79.31103 36161 ft 397 kts 306°
2026-05-06 16:01 28.08174 -79.36261 36157 ft 397 kts 306°
2026-05-06 16:01 28.11304 -79.41421 36152 ft 397 kts 306°
2026-05-06 16:02 28.14426 -79.46578 36149 ft 397 kts 305°
2026-05-06 16:02 28.17541 -79.51739 36153 ft 397 kts 305°
2026-05-06 16:03 28.20659 -79.56902 36160 ft 397 kts 305°
2026-05-06 16:03 28.23774 -79.62057 36154 ft 396 kts 305°
2026-05-06 16:04 28.26890 -79.67220 36155 ft 396 kts 305°
2026-05-06 16:04 28.29994 -79.72382 36168 ft 396 kts 305°
2026-05-06 16:05 28.33091 -79.77541 36172 ft 395 kts 305°
2026-05-06 16:05 28.36186 -79.82695 36151 ft 395 kts 304°
2026-05-06 16:06 28.39278 -79.87843 36150 ft 395 kts 304°
2026-05-06 16:06 28.42369 -79.93000 36151 ft 395 kts 304°
2026-05-06 16:07 28.45450 -79.98161 36152 ft 395 kts 304°
2026-05-06 16:07 28.48536 -80.03321 36144 ft 395 kts 304°
2026-05-06 16:08 28.51604 -80.08452 36147 ft 395 kts 304°
2026-05-06 16:08 28.54680 -80.13621 36146 ft 395 kts 304°
2026-05-06 16:09 28.57758 -80.18792 36128 ft 395 kts 304°
2026-05-06 16:09 28.60838 -80.23966 36161 ft 395 kts 304°
2026-05-06 16:10 28.63909 -80.29143 36142 ft 394 kts 304°
2026-05-06 16:10 28.66976 -80.34312 36130 ft 394 kts 304°
2026-05-06 16:11 28.70036 -80.39480 36132 ft 393 kts 304°
2026-05-06 16:11 28.73085 -80.44655 36128 ft 393 kts 303°
2026-05-06 16:12 28.76112 -80.49849 36129 ft 393 kts 303°
2026-05-06 16:12 28.79127 -80.55045 36120 ft 393 kts 303°
2026-05-06 16:13 28.82153 -80.60244 36128 ft 393 kts 303°
2026-05-06 16:13 28.85325 -80.65319 36127 ft 394 kts 312°
2026-05-06 16:14 28.89773 -80.68999 36131 ft 402 kts 331°
2026-05-06 16:14 28.94971 -80.71426 36166 ft 404 kts 332°
2026-05-06 16:15 29.00168 -80.73844 36160 ft 403 kts 332°
2026-05-06 16:15 29.05328 -80.76249 36157 ft 403 kts 332°
2026-05-06 16:16 29.10552 -80.78688 36154 ft 403 kts 332°
2026-05-06 16:16 29.15705 -80.81100 36152 ft 403 kts 332°
2026-05-06 16:17 29.20888 -80.83528 36150 ft 403 kts 332°
2026-05-06 16:17 29.26073 -80.85952 36169 ft 402 kts 332°
2026-05-06 16:18 29.31254 -80.88377 36158 ft 402 kts 332°
2026-05-06 16:18 29.36423 -80.90802 36158 ft 401 kts 332°
2026-05-06 16:19 29.41586 -80.93234 36149 ft 401 kts 332°
2026-05-06 16:19 29.46751 -80.95669 36146 ft 401 kts 332°
2026-05-06 16:20 29.51916 -80.98107 36148 ft 401 kts 332°
2026-05-06 16:20 29.57073 -81.00532 36157 ft 400 kts 332°
2026-05-06 16:21 29.62221 -81.02945 36150 ft 399 kts 332°
2026-05-06 16:21 29.67354 -81.05370 36146 ft 399 kts 331°
2026-05-06 16:22 29.72479 -81.07805 36146 ft 399 kts 331°
2026-05-06 16:22 29.77607 -81.10238 36148 ft 398 kts 331°
2026-05-06 16:23 29.82619 -81.12875 36173 ft 391 kts 322°
2026-05-06 16:23 29.87099 -81.16398 36165 ft 389 kts 321°
2026-05-06 16:24 29.91552 -81.19939 36159 ft 389 kts 321°
2026-05-06 16:24 29.96006 -81.23486 36161 ft 389 kts 321°
2026-05-06 16:25 30.00454 -81.27026 36159 ft 389 kts 321°
2026-05-06 16:25 30.04906 -81.30569 36149 ft 389 kts 320°
2026-05-06 16:26 30.09356 -81.34119 36144 ft 389 kts 320°
2026-05-06 16:26 30.13809 -81.37669 36156 ft 387 kts 320°
2026-05-06 16:27 30.18239 -81.41199 36145 ft 387 kts 320°
2026-05-06 16:27 30.22661 -81.44733 36137 ft 386 kts 320°
2026-05-06 16:28 30.27084 -81.48278 36147 ft 386 kts 320°
2026-05-06 16:28 30.31500 -81.51825 36145 ft 386 kts 320°
2026-05-06 16:29 30.35913 -81.55375 36144 ft 386 kts 320°
2026-05-06 16:29 30.40331 -81.58924 36131 ft 386 kts 320°
2026-05-06 16:30 30.44007 -81.61873 36132 ft 386 kts 320°
2026-05-06 16:30 30.49141 -81.66001 36122 ft 387 kts 320°
2026-05-06 16:31 30.53562 -81.69560 36120 ft 387 kts 320°
2026-05-06 16:31 30.57985 -81.73136 36120 ft 388 kts 320°
2026-05-06 16:32 30.62441 -81.76674 36120 ft 391 kts 324°
2026-05-06 16:32 30.67327 -81.79533 36123 ft 394 kts 327°
2026-05-06 16:33 30.72239 -81.82368 36142 ft 394 kts 327°
2026-05-06 16:34 30.79607 -81.86629 36146 ft 395 kts 327°
2026-05-06 16:34 30.84525 -81.89476 36109 ft 395 kts 327°
2026-05-06 16:35 30.89445 -81.92326 36112 ft 395 kts 327°
2026-05-06 16:35 30.94365 -81.95184 36096 ft 395 kts 327°
2026-05-06 16:36 30.99281 -81.98053 36127 ft 395 kts 327°
2026-05-06 16:36 31.04196 -82.00918 36149 ft 395 kts 326°
2026-05-06 16:37 31.09109 -82.03781 36116 ft 394 kts 326°
2026-05-06 16:37 31.14013 -82.06638 36124 ft 394 kts 326°
2026-05-06 16:38 31.18919 -82.09496 36122 ft 394 kts 326°
2026-05-06 16:38 31.23819 -82.12366 36130 ft 394 kts 326°
2026-05-06 16:39 31.28711 -82.15235 36162 ft 394 kts 326°
2026-05-06 16:39 31.33572 -82.18086 36147 ft 393 kts 326°
2026-05-06 16:40 31.38462 -82.20959 36139 ft 393 kts 326°
2026-05-06 16:40 31.43348 -82.23832 36130 ft 393 kts 326°
2026-05-06 16:41 31.47443 -82.26235 36126 ft 393 kts 326°
2026-05-06 16:41 31.52322 -82.29119 36118 ft 393 kts 326°
2026-05-06 16:42 31.57198 -82.32002 36134 ft 393 kts 326°
2026-05-06 16:42 31.62078 -82.34887 36121 ft 393 kts 326°
2026-05-06 16:43 31.66921 -82.37755 36110 ft 393 kts 326°
2026-05-06 16:43 31.71796 -82.40644 36095 ft 393 kts 326°
2026-05-06 16:44 31.76676 -82.43533 36088 ft 393 kts 326°
2026-05-06 16:44 31.81570 -82.46425 36087 ft 394 kts 326°
2026-05-06 16:45 31.86462 -82.49325 36120 ft 394 kts 325°
2026-05-06 16:45 31.91347 -82.52233 36139 ft 393 kts 325°
2026-05-06 16:46 31.96174 -82.55223 36133 ft 387 kts 319°
2026-05-06 16:46 32.00276 -82.59186 36129 ft 381 kts 313°
2026-05-06 16:47 32.04279 -82.63272 36123 ft 380 kts 313°
2026-05-06 16:47 32.08279 -82.67358 36111 ft 380 kts 313°
2026-05-06 16:48 32.12282 -82.71445 36125 ft 380 kts 313°
2026-05-06 16:48 32.16281 -82.75533 36133 ft 380 kts 313°
2026-05-06 16:49 32.20278 -82.79622 36114 ft 380 kts 313°
2026-05-06 16:49 32.24272 -82.83715 36111 ft 380 kts 313°
2026-05-06 16:50 32.28264 -82.87816 36110 ft 380 kts 313°
2026-05-06 16:50 32.32259 -82.91916 36128 ft 380 kts 313°
2026-05-06 16:51 32.36251 -82.96022 36106 ft 380 kts 313°
2026-05-06 16:51 32.40216 -83.00106 35885 ft 382 kts 313°
2026-05-06 16:51 32.42226 -83.02172 35176 ft 383 kts 313°
2026-05-06 16:52 32.44234 -83.04236 34510 ft 382 kts 313°
2026-05-06 16:52 32.46238 -83.06297 33788 ft 381 kts 313°
2026-05-06 16:52 32.48240 -83.08354 33011 ft 381 kts 314°
2026-05-06 16:52 32.50247 -83.10421 32180 ft 383 kts 314°
2026-05-06 16:53 32.52262 -83.12499 31400 ft 384 kts 314°
2026-05-06 16:53 32.54281 -83.14587 30637 ft 386 kts 314°
2026-05-06 16:53 32.56307 -83.16689 29783 ft 388 kts 314°
2026-05-06 16:53 32.58336 -83.18795 28848 ft 389 kts 314°
2026-05-06 16:54 32.60378 -83.20911 27930 ft 390 kts 314°
2026-05-06 16:54 32.62421 -83.23026 27060 ft 390 kts 314°
2026-05-06 16:54 32.64467 -83.25145 26206 ft 391 kts 314°
2026-05-06 16:54 32.66513 -83.27267 25373 ft 391 kts 314°
2026-05-06 16:55 32.68561 -83.29390 24558 ft 390 kts 314°
2026-05-06 16:55 32.70603 -83.31506 23783 ft 390 kts 314°
2026-05-06 16:55 32.72644 -83.33627 22896 ft 390 kts 314°
2026-05-06 16:55 32.74670 -83.35740 22396 ft 381 kts 314°
2026-05-06 16:56 32.76630 -83.37780 22142 ft 368 kts 314°
2026-05-06 16:56 32.78523 -83.39746 21909 ft 356 kts 314°
2026-05-06 16:56 32.80351 -83.41648 21780 ft 342 kts 314°
2026-05-06 16:56 32.82107 -83.43478 21562 ft 331 kts 313°
2026-05-06 16:57 32.83824 -83.45273 21185 ft 327 kts 313°
2026-05-06 16:57 32.85520 -83.47048 20726 ft 324 kts 313°
2026-05-06 16:57 32.87212 -83.48821 20141 ft 325 kts 313°
2026-05-06 16:57 32.88901 -83.50594 19424 ft 320 kts 313°
2026-05-06 16:58 32.90556 -83.52329 18733 ft 314 kts 313°
2026-05-06 16:58 32.92194 -83.54052 18077 ft 317 kts 312°
2026-05-06 16:58 32.93835 -83.55780 17664 ft 313 kts 312°
2026-05-06 16:58 32.95468 -83.57494 17182 ft 312 kts 312°
2026-05-06 16:59 32.97096 -83.59202 16741 ft 311 kts 312°
2026-05-06 16:59 32.98712 -83.60898 16322 ft 309 kts 312°
2026-05-06 16:59 33.00324 -83.62589 15915 ft 308 kts 312°
2026-05-06 16:59 33.01934 -83.64277 15493 ft 307 kts 312°
2026-05-06 17:00 33.03532 -83.65953 15082 ft 306 kts 312°
2026-05-06 17:00 33.05131 -83.67629 14675 ft 305 kts 312°
2026-05-06 17:00 33.06720 -83.69295 14273 ft 303 kts 311°
2026-05-06 17:00 33.08259 -83.70903 14083 ft 284 kts 311°
2026-05-06 17:01 33.09710 -83.72417 13853 ft 273 kts 311°
2026-05-06 17:01 33.11130 -83.73910 13515 ft 272 kts 311°
2026-05-06 17:01 33.12546 -83.75406 13119 ft 272 kts 311°
2026-05-06 17:01 33.13946 -83.76887 12765 ft 273 kts 311°
2026-05-06 17:02 33.15451 -83.78330 12384 ft 279 kts 320°
2026-05-06 17:02 33.17125 -83.79463 12022 ft 281 kts 323°
2026-05-06 17:02 33.18853 -83.80571 11657 ft 282 kts 324°
2026-05-06 17:02 33.20523 -83.81768 11296 ft 279 kts 320°
2026-05-06 17:03 33.22145 -83.83036 10895 ft 280 kts 319°
2026-05-06 17:03 33.23775 -83.84322 10473 ft 282 kts 319°
2026-05-06 17:03 33.25412 -83.85621 10095 ft 282 kts 319°
2026-05-06 17:03 33.27016 -83.86894 10003 ft 273 kts 319°
2026-05-06 17:04 33.28594 -83.88143 10011 ft 272 kts 319°
2026-05-06 17:04 33.30174 -83.89393 10016 ft 272 kts 319°
2026-05-06 17:04 33.31748 -83.90646 10014 ft 272 kts 319°
2026-05-06 17:04 33.33330 -83.91904 9683 ft 274 kts 319°
2026-05-06 17:05 33.34917 -83.93161 9283 ft 273 kts 319°
2026-05-06 17:05 33.36497 -83.94423 8856 ft 273 kts 319°
2026-05-06 17:05 33.38072 -83.95696 8429 ft 273 kts 319°
2026-05-06 17:05 33.39634 -83.96973 8003 ft 271 kts 319°
2026-05-06 17:06 33.41187 -83.98251 7589 ft 271 kts 319°
2026-05-06 17:06 33.42729 -83.99539 7202 ft 269 kts 319°
2026-05-06 17:06 33.44248 -84.00819 6848 ft 266 kts 319°
2026-05-06 17:06 33.45748 -84.02092 6498 ft 262 kts 319°
2026-05-06 17:07 33.47226 -84.03354 6107 ft 260 kts 319°
2026-05-06 17:07 33.48684 -84.04612 5629 ft 254 kts 319°
2026-05-06 17:07 33.50098 -84.05844 5150 ft 251 kts 319°
2026-05-06 17:07 33.51516 -84.07093 4655 ft 254 kts 319°
2026-05-06 17:08 33.52943 -84.08359 4156 ft 256 kts 320°
2026-05-06 17:08 33.54369 -84.09643 3676 ft 257 kts 319°
2026-05-06 17:08 33.55809 -84.10913 3184 ft 254 kts 319°
2026-05-06 17:08 33.57214 -84.12115 3009 ft 243 kts 319°
2026-05-06 17:09 33.58591 -84.13310 3006 ft 249 kts 320°
2026-05-06 17:09 33.59786 -84.14746 3005 ft 240 kts 299°
2026-05-06 17:09 33.60666 -84.16444 3025 ft 239 kts 297°
2026-05-06 17:09 33.61520 -84.18121 3021 ft 228 kts 297°
2026-05-06 17:10 33.62311 -84.19679 3025 ft 211 kts 297°
2026-05-06 17:10 33.62985 -84.21161 3017 ft 193 kts 285°
2026-05-06 17:10 33.63168 -84.22698 3022 ft 184 kts 267°
2026-05-06 17:10 33.63169 -84.24187 3047 ft 169 kts 268°
2026-05-06 17:11 33.63172 -84.25530 3020 ft 152 kts 266°
2026-05-06 17:11 33.63174 -84.26734 3011 ft 139 kts 266°
2026-05-06 17:11 33.63174 -84.27883 3021 ft 137 kts 265°
2026-05-06 17:11 33.63175 -84.29024 2989 ft 137 kts 266°
2026-05-06 17:12 33.63175 -84.30176 2896 ft 138 kts 264°
2026-05-06 17:12 33.63177 -84.31307 2726 ft 135 kts 265°
2026-05-06 17:12 33.63178 -84.32427 2559 ft 134 kts 264°
2026-05-06 17:12 33.63179 -84.33538 2383 ft 133 kts 264°
2026-05-06 17:13 33.63179 -84.34654 2209 ft 134 kts 265°
2026-05-06 17:13 33.63180 -84.35769 2044 ft 133 kts 264°
2026-05-06 17:13 33.63180 -84.36879 1861 ft 133 kts 264°
2026-05-06 17:13 33.63181 -84.37993 1672 ft 136 kts 261°
2026-05-06 17:14 33.63181 -84.39120 1481 ft 136 kts 269°
2026-05-06 17:14 33.63181 -84.40263 1306 ft 137 kts 265°
2026-05-06 17:14 33.63189 -84.41403 1120 ft 136 kts 262°
2026-05-06 17:14 33.63187 -84.42523 1043 ft 128 kts 263°
2026-05-06 17:15 33.63170 -84.43421 1037 ft 89 kts 270°
2026-05-06 17:15 33.63179 -84.43983 1033 ft 45 kts 274°
2026-05-06 17:15 33.63263 -84.44237 1035 ft 20 kts 305°
2026-05-06 17:15 33.63331 -84.44256 1035 ft 8 kts 18°
2026-05-06 17:16 33.63390 -84.44206 1035 ft 11 kts 32°
2026-05-06 17:16 33.63461 -84.44200 1036 ft 11 kts
2026-05-06 17:16 33.63562 -84.44198 1036 ft 17 kts 360°
2026-05-06 17:16 33.63651 -84.44168 1036 ft 14 kts 51°
2026-05-06 17:17 33.63665 -84.44025 1036 ft 20 kts 90°
2026-05-06 17:17 33.63665 -84.43861 1036 ft 16 kts 87°
2026-05-06 17:17 33.63731 -84.43789 1036 ft 13 kts 356°
2026-05-06 17:17 33.63766 -84.43860 1036 ft 8 kts 267°
2026-05-06 17:18 33.63766 -84.43864 1036 ft 0 kts 268°